VK2RZ Weather Reports


time (UTC)temp
F
wind
direction
speed
knots
gust
knots
rain 1hr
in
rain 24hr
in
rain mn
in
humidity
%
barometer
mb
20260902065431 77 276 0.9 8.7 0.00 0.00 0.00 3 1012.8
20260902063428 78 251 2.6 9.6 0.00 0.00 0.00 3 1012.7
20260902062429 78 272 7.0 11.3 0.00 0.00 0.00 3 1012.6
20260902060425 79 241 4.3 8.7 0.00 0.00 0.00 3 1012.7
20260902055431 80 207 3.5 11.3 0.00 0.00 0.00 3 1012.5
20260902054425 80 273 2.6 9.6 0.00 0.00 0.00 3 1012.5
20260902053425 80 245 7.0 8.7 0.00 0.00 0.00 3 1012.6
20260902052426 80 291 0.9 11.3 0.00 0.00 0.00 3 1012.6
20260902051431 81 202 5.2 10.4 0.00 0.00 0.00 3 1012.6
20260902050425 81 268 3.5 8.7 0.00 0.00 0.00 3 1012.7
20260902045432 80 289 9.6 13.0 0.00 0.00 0.00 3 1012.8
20260902044428 81 306 3.5 8.7 0.00 0.00 0.00 3 1012.8
20260902043428 81 243 7.8 11.3 0.00 0.00 0.00 3 1012.6
20260902042426 81 197 2.6 7.8 0.00 0.00 0.00 3 1012.6
20260902040428 80 229 3.5 7.0 0.00 0.00 0.00 3 1012.8
20260902035432 79 255 2.6 6.1 0.00 0.00 0.00 4 1012.9
20260902034431 77 263 0.9 8.7 0.00 0.00 0.00 4 1013.0
20260902033429 79 252 3.5 8.7 0.00 0.00 0.00 4 1013.1
20260902032425 80 241 2.6 11.3 0.00 0.00 0.00 4 1013.1
20260902031425 79 208 4.3 8.7 0.00 0.00 0.00 4 1013.4
20260902030425 80 0 0.0 7.8 0.00 0.00 0.00 4 1013.5
20260902025425 79 260 6.1 11.3 0.00 0.00 0.00 4 1013.7
20260902024426 80 234 1.7 9.6 0.00 0.00 0.00 4 1013.8
20260902023425 79 285 8.7 11.3 0.00 0.00 0.00 4 1014.1
20260902022432 80 175 2.6 5.2 0.00 0.00 0.00 4 1014.2
20260902021425 79 275 0.9 12.2 0.00 0.00 0.00 4 1014.2
20260902020427 79 233 5.2 8.7 0.00 0.00 0.00 4 1014.4
20260902015427 78 277 7.8 8.7 0.00 0.00 0.00 4 1014.7
20260902014426 77 225 4.3 14.8 0.00 0.00 0.00 4 1014.8
20260902013425 78 294 15.6 21.7 0.00 0.00 0.00 4 1015.2
20260902012426 77 268 2.6 8.7 0.00 0.00 0.00 4 1015.2
20260902011425 77 288 1.7 6.1 0.00 0.00 0.00 4 1015.2
20260902010425 76 229 2.6 13.9 0.00 0.00 0.00 4 1015.2
20260902005425 75 270 7.8 9.6 0.00 0.00 0.00 4 1015.7
20260902003426 75 202 0.9 10.4 0.00 0.00 0.00 4 1015.8
20260902002425 75 279 3.5 13.0 0.00 0.00 0.00 4 1015.9
20260902001425 74 175 3.5 7.8 0.00 0.00 0.00 5 1016.2
20260902000429 73 106 3.5 12.2 0.00 0.00 0.00 5 1016.2
20260901235424 72 241 2.6 13.9 0.00 0.00 0.00 5 1016.1
20260901234424 71 232 1.7 7.0 0.00 0.00 0.00 5 1016.2
20260901233428 69 113 3.5 6.1 0.00 0.00 0.00 5 1016.4
20260901232427 68 59 1.7 4.3 0.00 0.00 0.00 6 1016.7
20260901231426 67 225 1.7 5.2 0.00 0.00 0.00 6 1017.0
20260901230423 66 124 0.9 4.3 0.00 0.00 0.00 6 1017.1
20260901225426 66 113 0.9 1.7 0.00 0.00 0.00 6 1017.2
20260901224428 66 136 2.6 4.3 0.00 0.00 0.00 6 1017.2
20260901223426 65 166 0.9 5.2 0.00 0.00 0.00 6 1017.2
20260901221423 65 122 2.6 3.5 0.00 0.00 0.00 6 1017.3
20260901220426 64 120 3.5 4.3 0.00 0.00 0.00 6 1017.2
20260901215422 64 122 1.7 4.3 0.00 0.00 0.00 6 1017.1
20260901214424 64 167 0.9 5.2 0.00 0.00 0.00 6 1017.1
20260901213422 64 185 0.9 3.5 0.00 0.00 0.00 6 1017.4
20260901212422 63 210 2.6 3.5 0.00 0.00 0.00 6 1017.3
20260901211422 63 211 0.9 2.6 0.00 0.00 0.00 6 1017.3
20260901210426 63 211 0.9 2.6 0.00 0.00 0.00 6 1017.2
20260901204426 65 210 4.3 4.3 0.00 0.00 0.00 5 1017.4
20260901203426 65 231 2.6 4.3 0.00 0.00 0.00 5 1017.4
20260901202424 64 213 0.9 8.7 0.00 0.00 0.00 6 1017.4
20260901201422 62 185 1.7 3.5 0.00 0.00 0.00 6 1017.0
20260901200423 61 169 1.7 2.6 0.00 0.00 0.00 6 1016.7
20260901194422 62 185 0.9 2.6 0.00 0.00 0.00 6 1016.6
20260901193422 61 0 0.0 0.0 0.00 0.00 0.00 6 1016.6
20260901192422 61 0 0.0 0.0 0.00 0.00 0.00 6 1016.4
20260901191422 61 0 0.0 1.7 0.00 0.00 0.00 6 1016.6
20260901185422 61 185 2.6 4.3 0.00 0.00 0.00 6 1015.9
20260901184422 60 185 1.7 4.3 0.00 0.00 0.00 6 1016.0
20260901183422 60 0 0.0 2.6 0.00 0.00 0.00 6 1016.0
20260901182423 59 189 0.9 2.6 0.00 0.00 0.00 7 1015.9
20260901181422 58 0 0.0 0.9 0.00 0.00 0.00 7 1015.9
20260901180423 59 0 0.0 0.0 0.00 0.00 0.00 7 1015.8
20260901175422 59 189 0.9 3.5 0.00 0.00 0.00 7 1016.0
20260901174422 59 189 0.9 2.6 0.00 0.00 0.00 6 1015.9
20260901173422 59 0 0.0 0.0 0.00 0.00 0.00 6 1016.1
20260901172422 59 0 0.0 0.0 0.00 0.00 0.00 6 1016.2
20260901170422 58 0 0.0 0.0 0.00 0.00 0.00 6 1016.4
20260901165422 60 0 0.0 2.6 0.00 0.00 0.00 6 1016.4
20260901164422 60 189 1.7 2.6 0.00 0.00 0.00 6 1016.8
20260901162422 61 0 0.0 0.0 0.00 0.00 0.00 6 1016.9
20260901161422 61 189 1.7 3.5 0.00 0.00 0.00 6 1016.8
20260901160421 61 0 0.0 2.6 0.00 0.00 0.00 6 1016.9
20260901155420 61 0 0.0 2.6 0.00 0.00 0.00 6 1017.0
20260901153420 60 189 0.9 6.1 0.00 0.00 0.00 6 1017.0
20260901152420 60 199 0.9 4.3 0.00 0.00 0.00 6 1017.1
20260901151420 60 216 1.7 3.5 0.00 0.00 0.00 6 1017.2
20260901150421 60 253 1.7 3.5 0.00 0.00 0.00 6 1017.4
20260901145420 60 255 0.9 2.6 0.00 0.00 0.00 6 1017.5
20260901144420 61 256 1.7 2.6 0.00 0.00 0.00 6 1017.7
20260901143420 60 0 0.0 0.0 0.00 0.00 0.00 6 1017.9
20260901142420 61 0 0.0 0.0 0.00 0.00 0.00 6 1018.0
20260901141420 61 0 0.0 0.0 0.00 0.00 0.00 6 1018.0
20260901140420 62 0 0.0 1.7 0.00 0.00 0.00 6 1018.2
20260901135420 61 0 0.0 1.7 0.00 0.00 0.00 6 1018.3
20260901134419 60 0 0.0 0.0 0.00 0.00 0.00 6 1018.4
20260901133419 61 0 0.0 0.0 0.00 0.00 0.00 6 1018.3
20260901132418 61 0 0.0 0.0 0.00 0.00 0.00 6 1018.3
20260901131418 61 0 0.0 0.0 0.00 0.00 0.00 6 1018.5
20260901130418 61 0 0.0 1.7 0.00 0.00 0.00 6 1018.3
20260901125418 62 0 0.0 2.6 0.00 0.00 0.00 6 1018.4
20260901124418 61 0 0.0 1.7 0.00 0.00 0.00 6 1018.5
20260901123418 62 0 0.0 1.7 0.00 0.00 0.00 6 1018.5
20260901122418 62 262 0.9 2.6 0.00 0.00 0.00 6 1018.5
20260901120418 62 285 0.9 2.6 0.00 0.00 0.00 6 1018.9
20260901115419 62 0 0.0 1.7 0.00 0.00 0.00 6 1019.2
20260901114419 61 0 0.0 1.7 0.00 0.00 0.00 6 1019.4
20260901113418 62 285 1.7 1.7 0.00 0.00 0.00 5 1019.6
20260901112418 64 286 1.7 2.6 0.00 0.00 0.00 5 1019.8
20260901110418 64 0 0.0 0.0 0.00 0.00 0.00 5 1020.0
20260901105418 63 0 0.0 0.0 0.00 0.00 0.00 5 1020.0
20260901104419 63 0 0.0 0.9 0.00 0.00 0.00 5 1020.1
20260901103418 62 286 0.9 2.6 0.00 0.00 0.00 5 1020.1
20260901102418 63 0 0.0 0.0 0.00 0.00 0.00 5 1020.1
20260901101418 64 286 0.9 1.7 0.00 0.00 0.00 5 1020.1
20260901100419 66 286 0.9 3.5 0.00 0.00 0.00 5 1020.2
20260901095417 66 285 0.9 2.6 0.00 0.00 0.00 4 1020.1
20260901094418 66 286 0.9 5.2 0.00 0.00 0.00 4 1020.1
20260901093417 67 287 0.9 1.7 0.00 0.00 0.00 4 1020.2
20260901092418 67 287 0.9 5.2 0.00 0.00 0.00 4 1020.1
20260901091422 67 287 1.7 5.2 0.00 0.00 0.00 4 1020.0
20260901085420 68 290 1.7 3.5 0.00 0.00 0.00 4 1019.8
20260901084421 68 297 1.7 2.6 0.00 0.00 0.00 4 1019.8
20260901083421 68 297 1.7 5.2 0.00 0.00 0.00 4 1019.8
20260901082420 69 273 3.5 5.2 0.00 0.00 0.00 4 1019.7
20260901081421 69 270 1.7 3.5 0.00 0.00 0.00 4 1019.7
20260901080417 70 270 0.9 3.5 0.00 0.00 0.00 4 1019.6
20260901075421 69 270 3.5 3.5 0.00 0.00 0.00 4 1019.5
20260901074421 70 267 2.6 2.6 0.00 0.00 0.00 4 1019.2
20260901072421 71 272 1.7 2.6 0.00 0.00 0.00 4 1019.0
20260901071420 72 271 1.7 3.5 0.00 0.00 0.00 4 1019.0
20260901070420 73 269 3.5 3.5 0.00 0.00 0.00 4 1018.8